Home   Weather   Lódz   Past weeks

Flag for Poland Past Weather in Lódz, Poland — Yesterday and Last 2 Weeks

Now
62 °F

Overcast.


Feels Like: 62 °F
Forecast: 57 / 72 °F
Wind: 5 mph from Southwest

Location: Lodz

Current Time: Jul 26, 2017 at 11:02:11 am

Latest Report: Jul 26, 2017 at 10:00 am


Visibility: 13 mi

Pressure: 29.56 "Hg

Humidity: 79%

Dew Point: 55 °F

Location of LódzLocation

Past Weather in Lódz — Graph

°F

Lódz Temperature Yesterday

Maximum temperature yesterday: 68 °F (at 2:00 am)
Minimum temperature yesterday: 57 °F (at 11:00 pm)
Average temperature yesterday: 64 °F

High & Low Weather Summary for the Past Weeks

 TemperatureHumidityPressure
High81 °F (Jul 23, 3:00 pm)100% (Jul 21, 6:00 am)30.20 "Hg (Jul 21, 6:00 am)
Low46 °F (Jul 14, 5:00 am)39% (Jul 15, 6:00 pm)29.50 "Hg (Jul 25, 7:00 am)
Average65 °F78%29.91 "Hg
* Reported Jul 11 9:00 am — Jul 26 9:00 am, Lódz. Weather by CustomWeather, © 2017

Note: Actual official high and low records may vary slightly from our data, if they occured in-between our weather recording intervals... More about our weather records

Advertising

Lódz Weather History for the Previous 24 Hours

Scroll right to see more
 ConditionsComfort  
Time TempWeatherWind HumidityBarometerVisibility
9:00 am
Wed, Jul 26
60 °FOvercast.3 mph82%29.56 "Hg12 mi
8:00 am58 °FOvercast.3 mph86%29.56 "Hg12 mi
7:00 am57 °FOvercast.3 mph87%29.55 "Hg12 mi
6:00 am57 °FOvercast.3 mph89%29.55 "Hg12 mi
5:00 am57 °FOvercast.2 mph90%29.55 "Hg12 mi
4:00 am57 °FOvercast.2 mph91%29.54 "Hg12 mi
3:00 am57 °FOvercast.3 mph93%29.55 "Hg12 mi
2:00 am57 °FPassing clouds.2 mph95%29.54 "Hg12 mi
1:00 am57 °FPassing clouds.1 mph98%29.56 "Hg6 mi
12:00 am57 °FFog.1 mph99%29.56 "Hg3 mi
11:00 pm
Tue, Jul 25
57 °FFog.1 mph98%29.57 "Hg2 mi
10:00 pm58 °FFog.2 mph98%29.57 "Hg5 mi
9:00 pm59 °FPassing clouds.1 mph97%29.56 "Hg6 mi
8:00 pm62 °FPartly sunny.2 mph89%29.55 "Hg12 mi
7:00 pm63 °FPartly sunny.5 mph85%29.57 "Hg12 mi
6:00 pm64 °FPartly sunny.8 mph81%29.56 "Hg12 mi
5:00 pm63 °FOvercast.7 mph91%29.56 "Hg12 mi
4:00 pm60 °FLight rain. Low clouds.6 mph95%29.57 "Hg12 mi
3:00 pm61 °FLight rain. Low clouds.6 mph96%29.55 "Hg12 mi
2:00 pm62 °FLight rain. Low clouds.6 mph96%29.54 "Hg12 mi
1:00 pm63 °FLight rain. Low clouds.3 mph98%29.50 "Hg4 mi
12:00 pm67 °FSprinkles. Low clouds.1 mph92%29.50 "Hg9 mi
11:00 am66 °FLow clouds.2 mph95%29.50 "Hg7 mi
Weather by CustomWeather, © 2017

See weather overviewHow to use our weather pages